[[{"header":{"parameterUnit":"m.s-1","parameterCategory":1,"la1":30.2992,"la2":30.254,"lo1":-89.0895,"lo2":-89.0443,"dy":0.0025,"dx":0.0025,"nx":19,"ny":19,"refTime":"2026-04-01T03:00:00:Z","depth":0,"parameterNumber":2,"parameterNumberName":"U-component_of_WINDS"},"data":[0,0,0,-4.3616,-4.3617,-4.3661,-4.3661,-4.3738,-4.3738,0,0,0,0,0,0,0,0,0,0,0,-4.3616,-4.3617,-4.3616,-4.3618,-4.3661,-4.3661,-4.3737,-4.3738,0,0,0,0,0,0,0,0,0,0,0,-4.3616,-4.3617,-4.3618,-4.3618,-4.3661,-4.3661,-4.3737,-4.3697,0,0,0,0,0,0,0,0,0,0,-4.3651,-4.3664,-4.3617,-4.3618,-4.3618,-4.3661,-4.3661,-4.3695,-4.3699,-4.3727,0,-4.3755,0,-4.3748,-4.3745,-4.3745,0,0,0,-4.3608,-4.366,-4.366,-4.3619,-4.3619,-4.3661,-4.3639,-4.3697,-4.3703,-4.3734,-4.3756,-4.3758,-4.375,-4.3746,-4.3746,-4.3938,-4.3939,0,0,-4.3605,-4.3631,-4.3656,-4.3664,-4.3659,-4.3637,-4.364,-4.37,-4.3726,-4.3756,-4.376,-4.3751,-4.3746,-4.3747,-4.3937,-4.3938,0,0,0,-4.3605,-4.363,-4.3628,-4.3662,-4.3668,-4.3639,-4.3642,-4.3724,-4.3721,-4.3761,-4.3752,-4.3747,-4.3748,-4.3935,-4.3937,-4.4028,0,0,0,-4.3603,-4.363,-4.3627,-4.3644,-4.3667,-4.3696,-4.3665,-4.3717,-4.3722,-4.3751,-4.3747,-4.3749,-4.3934,-4.3936,-4.4022,-4.4066,0,0,0,-4.3609,-4.363,-4.3641,-4.3645,-4.3664,-4.3695,-4.3695,-4.3717,-4.3718,-4.3745,-4.3749,-4.3933,-4.3936,-4.4017,-4.4057,-4.4122,0,0,0,-4.3623,-4.3722,-4.3643,-4.375,-4.3664,-4.3751,-4.3694,-4.3758,-4.3793,-4.3747,-4.3934,-4.3937,-4.4015,-4.4052,-4.4117,-4.418,-4.4209,0,0,-4.3762,-4.3739,-4.38,-4.3731,-4.3838,-4.3743,-4.3863,-4.3871,-4.385,-4.391,-4.3914,-4.4024,-4.4057,-4.4121,-4.4369,-4.4392,0,0,0,-4.3853,-4.3897,-4.392,-4.3954,-4.3962,-4.3972,-4.3959,-4.3962,-4.4011,-4.3886,-4.4065,-4.4084,-4.4121,-4.415,-4.417,-4.4199,-4.3952,-4.3952,-4.3952,-4.4085,-4.4053,-4.4152,-4.4125,-4.416,-4.4145,-4.4169,-4.417,-4.4129,-4.4172,-4.4188,-4.4342,-4.4377,-4.4392,-4.4423,-4.4221,-4.4222,-4.4222,-4.4222,-4.4284,-4.434,-4.4283,-4.4357,-4.4324,-4.4386,-4.4376,-4.4344,-4.4397,-4.4327,-4.4358,-4.4282,-4.4419,-4.4444,-4.4229,-4.4227,-4.4227,-4.4226,-4.4226,-4.443,-4.4451,-4.4454,-4.4499,-4.4539,-4.4509,-4.4562,-4.453,-4.45,-4.4531,-4.4544,-4.4542,-4.4534,-4.454,-4.454,-4.4541,-4.4541,-4.4542,-4.4542,-4.458,-4.458,-4.4628,-4.4646,-4.4663,-4.4682,-4.4669,-4.4685,-4.4695,-4.4667,-4.4667,-4.462,-4.4439,-4.4392,-4.455,-4.4549,-4.4548,-4.4547,-4.4546,-4.4789,-4.4737,-4.4812,-4.483,-4.4847,-4.4887,-4.4846,-4.4882,-4.4891,-4.4918,-4.4866,-4.4738,-4.4712,-4.4696,-4.4657,-4.4873,-4.4873,-4.4873,-4.4873,-4.4911,-4.4896,-4.4964,-4.4994,-4.502,-4.4991,-4.5076,-4.5067,-4.505,-4.5053,-4.5018,-4.4964,-4.495,-4.4933,-4.4911,-4.4874,-4.5141,-4.5142,-4.5142,-4.5037,-4.5023,-4.5101,-4.5083,-4.5095,-4.5105,-4.5184,-4.522,-4.519,-4.5152,-4.5054,-4.5043,-4.4957,-4.4931,-4.4888,-4.4856,-4.4788,0,0]},{"header":{"parameterUnit":"m.s-1","parameterCategory":1,"la1":30.2992,"la2":30.254,"lo1":-89.0895,"lo2":-89.0443,"dy":0.0025,"dx":0.0025,"nx":19,"ny":19,"refTime":"2026-04-01T03:00:00:Z","depth":0,"parameterNumber":3,"parameterNumberName":"V-component_of_WINDS"},"data":[0,0,0,2.7672,2.7674,2.7755,2.7755,2.7851,2.7852,0,0,0,0,0,0,0,0,0,0,0,2.7645,2.7646,2.7672,2.7674,2.7755,2.7755,2.7851,2.7852,0,0,0,0,0,0,0,0,0,0,0,2.7645,2.7645,2.7646,2.7674,2.7755,2.7755,2.7851,2.7792,0,0,0,0,0,0,0,0,0,0,2.7715,2.7687,2.7645,2.7646,2.7675,2.7754,2.7755,2.7789,2.7796,2.7812,0,2.7826,0,2.784,2.7858,2.7858,0,0,0,2.7676,2.7681,2.7706,2.7646,2.7676,2.7754,2.7719,2.7793,2.78,2.782,2.7827,2.7831,2.7842,2.7858,2.7859,2.7946,2.7947,0,0,2.7672,2.7657,2.7701,2.7711,2.7699,2.7716,2.7721,2.7797,2.7804,2.7828,2.7833,2.7844,2.7859,2.786,2.7946,2.7946,0,0,0,2.7658,2.7654,2.7678,2.7707,2.7722,2.7719,2.7725,2.78,2.7809,2.7834,2.7845,2.7859,2.7861,2.7946,2.7946,2.7949,0,0,0,2.7655,2.7646,2.7675,2.7667,2.772,2.7762,2.7726,2.7804,2.7813,2.7844,2.786,2.7861,2.7946,2.7946,2.7948,2.7952,0,0,0,2.7641,2.7644,2.7655,2.7666,2.7701,2.7761,2.7775,2.7806,2.7819,2.7858,2.7862,2.7945,2.7946,2.7947,2.7951,2.7972,0,0,0,2.7621,2.7654,2.7655,2.7695,2.77,2.7762,2.7774,2.7821,2.7855,2.786,2.7946,2.7946,2.7947,2.795,2.7971,2.7988,2.7993,0,0,2.7655,2.7658,2.7683,2.7686,2.7745,2.7751,2.781,2.7854,2.787,2.792,2.7922,2.7948,2.7951,2.7972,2.8027,2.8031,0,0,0,2.7689,2.7707,2.7726,2.7758,2.7793,2.7823,2.786,2.7876,2.792,2.7893,2.7961,2.7963,2.7976,2.7985,2.7989,2.8001,2.7949,2.7949,2.7949,2.7715,2.7736,2.7779,2.781,2.784,2.7878,2.7905,2.7934,2.7943,2.7959,2.7975,2.8006,2.8015,2.8018,2.8031,2.7984,2.7984,2.7984,2.7984,2.7767,2.7797,2.7811,2.7858,2.7879,2.7919,2.7957,2.7963,2.8003,2.7995,2.8008,2.7999,2.8022,2.8034,2.7984,2.7984,2.7984,2.7984,2.7984,2.7788,2.7806,2.7826,2.7875,2.7911,2.794,2.7978,2.7995,2.8011,2.8024,2.8042,2.8042,2.8046,2.8031,2.8031,2.8031,2.8032,2.8032,2.8032,2.7802,2.7825,2.7855,2.7896,2.792,2.7953,2.7992,2.8015,2.8045,2.8055,2.8055,2.8064,2.802,2.8009,2.8033,2.8033,2.8033,2.8033,2.8033,2.7849,2.7841,2.7889,2.7913,2.7963,2.7998,2.8019,2.8065,2.8087,2.8106,2.8112,2.8077,2.808,2.8078,2.8069,2.8107,2.8107,2.8107,2.8107,2.7867,2.7871,2.7925,2.7962,2.8,2.8025,2.8078,2.8108,2.8138,2.8153,2.815,2.8139,2.8136,2.8142,2.8138,2.813,2.8183,2.8183,2.8183,2.7898,2.7907,2.7949,2.798,2.802,2.8055,2.8106,2.8147,2.8179,2.8186,2.8165,2.8162,2.8145,2.8139,2.8146,2.8139,2.8125,0,0]}]]